Weather History for London-Corbin, KY

Change the Weather History Date:

Sunday, September 8, 2013

  Actual Average Record
Temperature  
Mean Temperature 76 °F 71 °F  
Max Temperature 87 °F 82 °F 92 °F (2007)
Min Temperature 65 °F 60 °F 47 °F (1956)
Degree Days  
Heating Degree Days 0 0  
Month to date heating degree days 0 0  
Since 1 July heating degree days 0 1  
Cooling Degree Days 11 6  
Month to date cooling degree days 66 59  
Year to date cooling degree days 958 1083  
Growing Degree Days 25 (Base 50)    
Moisture  
Dew Point 64 °F    
Average Humidity 68    
Maximum Humidity 93    
Minimum Humidity 42    
Precipitation  
Precipitation 0.01 in 0.11 in 1.30 in (2004)
Month to date precipitation 0.68 0.85  
Year to date precipitation 41.72 33.53  
Sea Level Pressure  
Sea Level Pressure 30.00 in    
Wind  
Wind Speed 1 mph (NNE)    
Max Wind Speed 9 mph    
Max Gust Speed 13 mph    
Visibility 6 miles    
Events      
T = Trace of Precipitation, MM = Missing Value Source: NWS Daily Summary

Daily Weather History Graph

Daily Weather History Graph

Search for Another Location

Airport:

Trip Planner

Search our weather history database for the weather conditions in past years. The results will help you decide how hot, cold, wet, or windy it might be!

Date:

Astronomy

Sep. 08, 2013 Rise Set
Actual Time 7:12 AM EDT 7:54 PM EDT
Civil Twilight 6:46 AM EDT 8:20 PM EDT
Nautical Twilight 6:15 AM EDT 8:51 PM EDT
Astronomical Twilight 5:43 AM EDT 9:23 PM EDT
Moon 10:23 AM EDT (9/8) 9:35 PM EDT (9/8)
Length of Visible Light 13h 33m
Length of Day
12h 41m
Waxing Crescent, 11% of the Moon is Illuminated
Sep 8
Waxing Crescent
Sep 12
First Quarter
Sep 19
Full
Sep 26
Last Quarter
Oct 4
New

Hourly Weather History & Observations

Time (EDT) Temp. Heat Index Dew Point Humidity Pressure Visibility Wind Dir Wind Speed Gust Speed Precip Events Conditions
12:46 AM 68.0 °F - 64.4 °F 88% 30.04 in 2.0 mi Calm Calm - N/A   Clear
12:53 AM 68.0 °F - 64.9 °F 90% 30.00 in 2.5 mi Calm Calm - N/A   Clear
1:37 AM 66.2 °F - 64.4 °F 94% 30.04 in 3.0 mi Calm Calm - N/A   Clear
1:46 AM 66.2 °F - 64.4 °F 94% 30.04 in 2.0 mi Calm Calm - N/A   Clear
1:53 AM 66.0 °F - 64.0 °F 93% 30.00 in 2.5 mi Calm Calm - N/A   Clear
2:02 AM 66.2 °F - 64.4 °F 94% 30.04 in 3.0 mi Calm Calm - N/A   Clear
2:51 AM 64.4 °F - 62.6 °F 94% 30.03 in 1.0 mi Calm Calm - N/A   Clear
2:53 AM 64.9 °F - 63.0 °F 93% 30.00 in 1.0 mi Calm Calm - N/A   Clear
2:57 AM 66.2 °F - 62.6 °F 88% 30.03 in 3.0 mi Calm Calm - N/A   Clear
3:41 AM 66.2 °F - 64.4 °F 94% 30.02 in 3.0 mi Calm Calm - N/A   Partly Cloudy
3:53 AM 66.0 °F - 63.0 °F 90% 29.99 in 3.0 mi Calm Calm - N/A   Clear
4:06 AM 66.2 °F - 62.6 °F 88% 30.03 in 3.0 mi Calm Calm - N/A   Scattered Clouds
4:08 AM 64.4 °F - 62.6 °F 94% 30.03 in 1.8 mi Calm Calm - N/A   Scattered Clouds
4:19 AM 66.2 °F - 64.4 °F 94% 30.02 in 3.0 mi Calm Calm - N/A   Mostly Cloudy
4:53 AM 66.0 °F - 63.0 °F 90% 29.99 in 5.0 mi Calm Calm - N/A   Partly Cloudy
5:02 AM 64.4 °F - 62.6 °F 94% 30.02 in 2.5 mi Calm Calm - N/A   Mostly Cloudy
5:22 AM 66.2 °F - 62.6 °F 88% 30.02 in 4.0 mi Calm Calm - N/A   Scattered Clouds
5:53 AM 66.0 °F - 63.0 °F 90% 29.99 in 5.0 mi Calm Calm - N/A   Clear
6:53 AM 66.0 °F - 63.0 °F 90% 29.99 in 8.0 mi Calm Calm - N/A   Partly Cloudy
7:53 AM 66.9 °F - 64.0 °F 90% 30.00 in 5.0 mi Calm Calm - 0.01 in   Mostly Cloudy
8:53 AM 69.1 °F - 64.9 °F 87% 30.01 in 8.0 mi Calm Calm - N/A   Overcast
9:53 AM 73.0 °F - 66.9 °F 81% 30.02 in 10.0 mi Calm Calm - N/A   Clear
10:53 AM 80.1 °F 82.1 °F 66.0 °F 62% 30.02 in 10.0 mi Calm Calm - N/A   Clear
11:53 AM 82.9 °F 84.6 °F 64.9 °F 54% 30.02 in 10.0 mi ENE 4.6 mph - N/A   Partly Cloudy
12:53 PM 82.9 °F 83.7 °F 62.1 °F 49% 30.00 in 10.0 mi Calm Calm - N/A   Partly Cloudy
1:53 PM 86.0 °F 86.1 °F 61.0 °F 43% 29.99 in 10.0 mi Variable 3.5 mph - N/A   Partly Cloudy
2:53 PM 84.9 °F 85.0 °F 61.0 °F 44% 29.98 in 10.0 mi Calm Calm - N/A   Mostly Cloudy
3:53 PM 84.0 °F 85.4 °F 64.0 °F 51% 29.97 in 10.0 mi West 6.9 mph - N/A   Scattered Clouds
4:53 PM 84.0 °F 85.8 °F 64.9 °F 53% 29.97 in 10.0 mi NE 4.6 mph - N/A   Overcast
5:53 PM 82.0 °F 84.1 °F 66.0 °F 58% 29.96 in 10.0 mi Calm Calm - N/A   Overcast
6:53 PM 82.9 °F 84.4 °F 64.0 °F 53% 29.96 in 10.0 mi Calm Calm - N/A   Clear
7:53 PM 78.1 °F - 68.0 °F 71% 29.96 in 10.0 mi Calm Calm - N/A   Clear
8:53 PM 73.9 °F - 68.0 °F 82% 29.97 in 10.0 mi Calm Calm - N/A   Clear
9:53 PM 72.0 °F - 66.9 °F 84% 29.99 in 8.0 mi Calm Calm - N/A   Clear
10:53 PM 70.0 °F - 66.0 °F 87% 30.00 in 7.0 mi Calm Calm - N/A   Clear
11:53 PM 70.0 °F - 66.9 °F 90% 30.01 in 4.0 mi Calm Calm - N/A   Clear